Location: Isola Pescaroli
(45.0500°N, 10.1667°E)
Time: 16:06:08
(UTC+00:00)

Lacrosse 4 Rocket - Pass Details

Date: 03 March 2021
Orbit: 537 x 620 km, 68.0° (Epoch: 18 April)

Event Time Altitude Azimuth Distance (km) Brightness Sun altitude
Rises 19:09:35 0° 199° (SSW) 2,812 5.0 -21.9°
Reaches altitude 10° 19:11:48 10° 196° (SSW) 1,928 4.1 -22.3°
Enters shadow 19:14:21 34° 183° (S) 1,001 2.5 -22.7°
